Satellite: AEROCUB3
Catalog number: 35005
Epoch time:      09344.90273128
Element set:     162
Inclination:      040.4756 deg
RA of node:       261.1790 deg
Eccentricity:    0.0025002
Arg of perigee:   039.5380 deg
Mean anomaly:     320.7270 deg
Mean motion:   15.41661825 rev/day
Decay rate:      7.625e-05 rev/day^2
Epoch rev:            3160
Checksum:              264

Satellite: DRAGNSAT
Catalog number: 35690
Epoch time:      09344.76570910
Element set:     135
Inclination:      051.6363 deg
RA of node:       109.8599 deg
Eccentricity:    0.0003869
Arg of perigee:   243.9995 deg
Mean anomaly:     116.0617 deg
Mean motion:   15.89459764 rev/day
Decay rate:     4.5171e-04 rev/day^2
Epoch rev:            2112
Checksum:              330

Satellite: POLLUX
Catalog number: 35693
Epoch time:      09344.77090188
Element set:     142
Inclination:      051.6371 deg
RA of node:       110.6637 deg
Eccentricity:    0.0002793
Arg of perigee:   189.4886 deg
Mean anomaly:     170.6010 deg
Mean motion:   15.88055698 rev/day
Decay rate:     4.0043e-04 rev/day^2
Epoch rev:            2108
Checksum:              304

Satellite: CASTOR
Catalog number: 35694
Epoch time:      09344.78407903
Element set:     126
Inclination:      051.6392 deg
RA of node:       112.3061 deg
Eccentricity:    0.0003740
Arg of perigee:   172.6969 deg
Mean anomaly:     187.4067 deg
Mean motion:   15.83925008 rev/day
Decay rate:     1.6740e-04 rev/day^2
Epoch rev:            2106
Checksum:              296

Satellite: METEOR-M
Catalog number: 35865
Epoch time:      09344.32698875
Element set:      74
Inclination:      098.7872 deg
RA of node:       034.2180 deg
Eccentricity:    0.0002269
Arg of perigee:   169.6718 deg
Mean anomaly:     190.4452 deg
Mean motion:   14.21828127 rev/day
Decay rate:       1.76e-06 rev/day^2
Epoch rev:            1188
Checksum:              325

/EX
_______________________________________________
Via the Keps mailing list courtesy of AMSAT-NA
http://amsat.org/mailman/listinfo/keps

--- ViaMAIL!/WC v1.60d
 * Origin: Chowdanet (401-724-4410) telnet://chowdanet.com  (1:323/120)